Year,Month,Day,Hour,Minute,Value (Times are PST for temperature in C)
2009,07,01,00,00,13.60
2009,07,01,00,01,13.60
2009,07,01,00,02,13.50
2009,07,01,00,03,13.50
2009,07,01,00,04,13.50
2009,07,01,00,05,13.50
2009,07,01,00,06,13.40
2009,07,01,00,07,13.40
2009,07,01,00,08,13.30
2009,07,01,00,09,13.30
2009,07,01,00,10,13.30
2009,07,01,00,11,13.30
2009,07,01,00,12,13.30
2009,07,01,00,13,13.20
2009,07,01,00,14,13.20
2009,07,01,00,15,13.20
2009,07,01,00,16,13.20
2009,07,01,00,17,13.10
2009,07,01,00,18,13.10
2009,07,01,00,19,13.10
2009,07,01,00,20,13.10
2009,07,01,00,21,13.10
2009,07,01,00,22,13.10
2009,07,01,00,23,13.10
2009,07,01,00,24,13.10
2009,07,01,00,25,13.10
2009,07,01,00,26,13.00
2009,07,01,00,27,13.00
2009,07,01,00,28,13.00
2009,07,01,00,29,13.00
2009,07,01,00,30,13.00
2009,07,01,00,31,13.00
2009,07,01,00,32,13.00
2009,07,01,00,33,13.00
2009,07,01,00,34,13.10
2009,07,01,00,35,13.10
2009,07,01,00,36,13.10
2009,07,01,00,37,13.10
2009,07,01,00,38,13.10
2009,07,01,00,39,13.00
2009,07,01,00,40,13.00
2009,07,01,00,41,13.10
2009,07,01,00,42,13.10
2009,07,01,00,43,13.10
2009,07,01,00,44,13.20
2009,07,01,00,45,13.20
2009,07,01,00,46,13.30
2009,07,01,00,47,13.30
2009,07,01,00,48,13.30
2009,07,01,00,49,13.30
2009,07,01,00,50,13.30
2009,07,01,00,51,13.30
2009,07,01,00,52,13.20
2009,07,01,00,53,13.20
2009,07,01,00,54,13.20
2009,07,01,00,55,13.10
2009,07,01,00,56,13.20
2009,07,01,00,57,13.20
2009,07,01,00,58,13.20
2009,07,01,00,59,13.20
2009,07,01,01,00,13.20
2009,07,01,01,01,13.20
2009,07,01,01,02,13.20
2009,07,01,01,03,13.20
2009,07,01,01,04,13.20
2009,07,01,01,05,13.20
2009,07,01,01,06,13.30
2009,07,01,01,07,13.30
2009,07,01,01,08,13.30
2009,07,01,01,09,13.40
2009,07,01,01,10,13.50
2009,07,01,01,11,13.60
2009,07,01,01,12,13.70
2009,07,01,01,13,13.70
2009,07,01,01,14,13.70
2009,07,01,01,15,13.70
2009,07,01,01,16,13.80
2009,07,01,01,17,13.80
2009,07,01,01,18,13.90
2009,07,01,01,19,14.00
2009,07,01,01,20,14.00
2009,07,01,01,21,14.00
2009,07,01,01,22,13.90
2009,07,01,01,23,13.90
2009,07,01,01,24,13.70
2009,07,01,01,25,13.70
2009,07,01,01,26,13.60
2009,07,01,01,27,13.50
2009,07,01,01,28,13.50
2009,07,01,01,29,13.40
2009,07,01,01,30,13.30
2009,07,01,01,31,13.30
2009,07,01,01,32,13.20
2009,07,01,01,33,13.10
2009,07,01,01,34,13.00
2009,07,01,01,35,13.00
2009,07,01,01,36,12.90
2009,07,01,01,37,12.80
2009,07,01,01,38,12.80
2009,07,01,01,39,12.80
2009,07,01,01,40,12.70
2009,07,01,01,41,12.70
2009,07,01,01,42,12.70
2009,07,01,01,43,12.60
2009,07,01,01,44,12.60
2009,07,01,01,45,12.60
2009,07,01,01,46,12.60
2009,07,01,01,47,12.60
2009,07,01,01,48,12.60
2009,07,01,01,49,12.60
2009,07,01,01,50,12.60
2009,07,01,01,51,12.60
2009,07,01,01,52,12.60
2009,07,01,01,53,12.60
2009,07,01,01,54,12.60
2009,07,01,01,55,12.60
2009,07,01,01,56,12.60
2009,07,01,01,57,12.60
2009,07,01,01,58,12.60
2009,07,01,01,59,12.60
2009,07,01,02,00,12.60
2009,07,01,02,01,12.60
2009,07,01,02,02,12.50
2009,07,01,02,03,12.50
2009,07,01,02,04,12.50
2009,07,01,02,05,12.50
2009,07,01,02,06,12.40
2009,07,01,02,07,12.40
2009,07,01,02,08,12.40
2009,07,01,02,09,12.30
2009,07,01,02,10,12.30
2009,07,01,02,11,12.30
2009,07,01,02,12,12.30
2009,07,01,02,13,12.30
2009,07,01,02,14,12.30
2009,07,01,02,15,12.30
2009,07,01,02,16,12.30
2009,07,01,02,17,12.20
2009,07,01,02,18,12.20
2009,07,01,02,19,12.20
2009,07,01,02,20,12.10
2009,07,01,02,21,12.10
2009,07,01,02,22,12.10
2009,07,01,02,23,12.00
2009,07,01,02,24,12.00
2009,07,01,02,25,11.90
2009,07,01,02,26,11.90
2009,07,01,02,27,11.80
2009,07,01,02,28,11.80
2009,07,01,02,29,11.80
2009,07,01,02,30,11.80
2009,07,01,02,31,11.80
2009,07,01,02,32,11.80
2009,07,01,02,33,11.80
2009,07,01,02,34,11.70
2009,07,01,02,35,11.70
2009,07,01,02,36,11.70
2009,07,01,02,37,11.70
2009,07,01,02,38,11.60
2009,07,01,02,39,11.60
2009,07,01,02,40,11.60
2009,07,01,02,41,11.60
2009,07,01,02,42,11.60
2009,07,01,02,43,11.60
2009,07,01,02,44,11.60
2009,07,01,02,45,11.60
2009,07,01,02,46,11.60
2009,07,01,02,47,11.60
2009,07,01,02,48,11.60
2009,07,01,02,49,11.60
2009,07,01,02,50,11.60
2009,07,01,02,51,11.60
2009,07,01,02,52,11.60
2009,07,01,02,53,11.60
2009,07,01,02,54,11.60
2009,07,01,02,55,11.60
2009,07,01,02,56,11.60
2009,07,01,02,57,11.60
2009,07,01,02,58,11.60
2009,07,01,02,59,11.70
2009,07,01,03,00,11.70
2009,07,01,03,01,11.70
2009,07,01,03,02,11.70
2009,07,01,03,03,11.70
2009,07,01,03,04,11.70
2009,07,01,03,05,11.80
2009,07,01,03,06,11.80
2009,07,01,03,07,11.80
2009,07,01,03,08,11.80
2009,07,01,03,09,11.80
2009,07,01,03,10,11.90
2009,07,01,03,11,11.90
2009,07,01,03,12,11.90
2009,07,01,03,13,11.80
2009,07,01,03,14,11.80
2009,07,01,03,15,11.80
2009,07,01,03,16,11.80
2009,07,01,03,17,11.80
2009,07,01,03,18,11.80
2009,07,01,03,19,11.80
2009,07,01,03,20,11.80
2009,07,01,03,21,11.80
2009,07,01,03,22,11.80
2009,07,01,03,23,11.80
2009,07,01,03,24,11.80
2009,07,01,03,25,11.80
2009,07,01,03,26,11.80
2009,07,01,03,27,11.80
2009,07,01,03,28,11.70
2009,07,01,03,29,11.70
2009,07,01,03,30,11.70
2009,07,01,03,31,11.70
2009,07,01,03,32,11.70
2009,07,01,03,33,11.60
2009,07,01,03,34,11.60
2009,07,01,03,35,11.60
2009,07,01,03,36,11.60
2009,07,01,03,37,11.60
2009,07,01,03,38,11.60
2009,07,01,03,39,11.60
2009,07,01,03,40,11.60
2009,07,01,03,41,11.60
2009,07,01,03,42,11.60
2009,07,01,03,43,11.60
2009,07,01,03,44,11.60
2009,07,01,03,45,11.70
2009,07,01,03,46,11.70
2009,07,01,03,47,11.70
2009,07,01,03,48,11.80
2009,07,01,03,49,11.80
2009,07,01,03,50,11.80
2009,07,01,03,51,11.80
2009,07,01,03,52,11.80
2009,07,01,03,53,11.80
2009,07,01,03,54,11.80
2009,07,01,03,55,11.80
2009,07,01,03,56,11.80
2009,07,01,03,57,11.80
2009,07,01,03,58,11.80
2009,07,01,03,59,11.80
2009,07,01,04,00,11.80
2009,07,01,04,01,11.80
2009,07,01,04,02,11.80
2009,07,01,04,03,11.80
2009,07,01,04,04,11.80
2009,07,01,04,05,11.80
2009,07,01,04,06,11.80
2009,07,01,04,07,11.70
2009,07,01,04,08,11.70
2009,07,01,04,09,11.60
2009,07,01,04,10,11.60
2009,07,01,04,11,11.50
2009,07,01,04,12,11.40
2009,07,01,04,13,11.40
2009,07,01,04,14,11.40
2009,07,01,04,15,11.30
2009,07,01,04,16,11.30
2009,07,01,04,17,11.20
2009,07,01,04,18,11.10
2009,07,01,04,19,11.10
2009,07,01,04,20,11.10
2009,07,01,04,21,11.10
2009,07,01,04,22,11.10
2009,07,01,04,23,11.10
2009,07,01,04,24,11.10
2009,07,01,04,25,11.10
2009,07,01,04,26,11.10
2009,07,01,04,27,11.10
2009,07,01,04,28,11.10
2009,07,01,04,29,11.20
2009,07,01,04,30,11.20
2009,07,01,04,31,11.30
2009,07,01,04,32,11.30
2009,07,01,04,33,11.30
2009,07,01,04,34,11.30
2009,07,01,04,35,11.30
2009,07,01,04,36,11.40
2009,07,01,04,37,11.40
2009,07,01,04,38,11.40
2009,07,01,04,39,11.40
2009,07,01,04,40,11.50
2009,07,01,04,41,11.60
2009,07,01,04,42,11.60
2009,07,01,04,43,11.60
2009,07,01,04,44,11.50
2009,07,01,04,45,11.40
2009,07,01,04,46,11.40
2009,07,01,04,47,11.40
2009,07,01,04,48,11.30
2009,07,01,04,49,11.30
2009,07,01,04,50,11.30
2009,07,01,04,51,11.30
2009,07,01,04,52,11.30
2009,07,01,04,53,11.30
2009,07,01,04,54,11.40
2009,07,01,04,55,11.40
2009,07,01,04,56,11.40
2009,07,01,04,57,11.40
2009,07,01,04,58,11.40
2009,07,01,04,59,11.40
2009,07,01,05,00,11.40
2009,07,01,05,01,11.40
2009,07,01,05,02,11.30
2009,07,01,05,03,11.30
2009,07,01,05,04,11.30
2009,07,01,05,05,11.20
2009,07,01,05,06,11.20
2009,07,01,05,07,11.20
2009,07,01,05,08,11.20
2009,07,01,05,09,11.10
2009,07,01,05,10,11.10
2009,07,01,05,11,11.10
2009,07,01,05,12,11.10
2009,07,01,05,13,11.10
2009,07,01,05,14,11.10
2009,07,01,05,15,11.10
2009,07,01,05,16,11.10
2009,07,01,05,17,11.10
2009,07,01,05,18,11.20
2009,07,01,05,19,11.20
2009,07,01,05,20,11.20
2009,07,01,05,21,11.30
2009,07,01,05,22,11.40
2009,07,01,05,23,11.40
2009,07,01,05,24,11.40
2009,07,01,05,25,11.30
2009,07,01,05,26,11.30
2009,07,01,05,27,11.30
2009,07,01,05,28,11.40
2009,07,01,05,29,11.40
2009,07,01,05,30,11.40
2009,07,01,05,31,11.50
2009,07,01,05,32,11.60
2009,07,01,05,33,11.60
2009,07,01,05,34,11.60
2009,07,01,05,35,11.60
2009,07,01,05,36,11.60
2009,07,01,05,37,11.70
2009,07,01,05,38,11.70
2009,07,01,05,39,11.80
2009,07,01,05,40,11.80
2009,07,01,05,41,11.80
2009,07,01,05,42,11.80
2009,07,01,05,43,11.70
2009,07,01,05,44,11.70
2009,07,01,05,45,11.70
2009,07,01,05,46,11.70
2009,07,01,05,47,11.70
2009,07,01,05,48,11.80
2009,07,01,05,49,11.80
2009,07,01,05,50,11.80
2009,07,01,05,51,11.80
2009,07,01,05,52,11.90
2009,07,01,05,53,12.00
2009,07,01,05,54,12.00
2009,07,01,05,55,12.10
2009,07,01,05,56,12.10
2009,07,01,05,57,12.20
2009,07,01,05,58,12.30
2009,07,01,05,59,12.30
2009,07,01,06,00,12.30
2009,07,01,06,01,12.40
2009,07,01,06,02,12.40
2009,07,01,06,03,12.50
2009,07,01,06,04,12.60
2009,07,01,06,05,12.60
2009,07,01,06,06,12.70
2009,07,01,06,07,12.70
2009,07,01,06,08,12.80
2009,07,01,06,09,12.80
2009,07,01,06,10,12.80
2009,07,01,06,11,12.90
2009,07,01,06,12,12.90
2009,07,01,06,13,12.90
2009,07,01,06,14,13.00
2009,07,01,06,15,13.00
2009,07,01,06,16,13.00
2009,07,01,06,17,13.00
2009,07,01,06,18,13.10
2009,07,01,06,19,13.10
2009,07,01,06,20,13.10
2009,07,01,06,21,13.20
2009,07,01,06,22,13.20
2009,07,01,06,23,13.30
2009,07,01,06,24,13.30
2009,07,01,06,25,13.40
2009,07,01,06,26,13.50
2009,07,01,06,27,13.50
2009,07,01,06,28,13.60
2009,07,01,06,29,13.60
2009,07,01,06,30,13.70
2009,07,01,06,31,13.70
2009,07,01,06,32,13.70
2009,07,01,06,33,13.80
2009,07,01,06,34,13.80
2009,07,01,06,35,13.90
2009,07,01,06,36,13.90
2009,07,01,06,37,14.00
2009,07,01,06,38,14.00
2009,07,01,06,39,14.10
2009,07,01,06,40,14.10
2009,07,01,06,41,14.20
2009,07,01,06,42,14.20
2009,07,01,06,43,14.20
2009,07,01,06,44,14.20
2009,07,01,06,45,14.30
2009,07,01,06,46,14.30
2009,07,01,06,47,14.30
2009,07,01,06,48,14.30
2009,07,01,06,49,14.30
2009,07,01,06,50,14.30
2009,07,01,06,51,14.30
2009,07,01,06,52,14.30
2009,07,01,06,53,14.30
2009,07,01,06,54,14.30
2009,07,01,06,55,14.30
2009,07,01,06,56,14.30
2009,07,01,06,57,14.30
2009,07,01,06,58,14.40
2009,07,01,06,59,14.40
2009,07,01,07,00,14.40
2009,07,01,07,01,14.40
2009,07,01,07,02,14.40
2009,07,01,07,03,14.40
2009,07,01,07,04,14.40
2009,07,01,07,05,14.40
2009,07,01,07,06,14.40
2009,07,01,07,07,14.40
2009,07,01,07,08,14.40
2009,07,01,07,09,14.40
2009,07,01,07,10,14.40
2009,07,01,07,11,14.40
2009,07,01,07,12,14.50
2009,07,01,07,13,14.50
2009,07,01,07,14,14.50
2009,07,01,07,15,14.50
2009,07,01,07,16,14.60
2009,07,01,07,17,14.60
2009,07,01,07,18,14.60
2009,07,01,07,19,14.60
2009,07,01,07,20,14.60
2009,07,01,07,21,14.60
2009,07,01,07,22,14.60
2009,07,01,07,23,14.60
2009,07,01,07,24,14.60
2009,07,01,07,25,14.60
2009,07,01,07,26,14.60
2009,07,01,07,27,14.60
2009,07,01,07,28,14.60
2009,07,01,07,29,14.70
2009,07,01,07,30,14.70
2009,07,01,07,31,14.80
2009,07,01,07,32,14.80
2009,07,01,07,33,14.80
2009,07,01,07,34,14.90
2009,07,01,07,35,14.90
2009,07,01,07,36,14.90
2009,07,01,07,37,14.90
2009,07,01,07,38,14.90
2009,07,01,07,39,14.90
2009,07,01,07,40,14.90
2009,07,01,07,41,14.90
2009,07,01,07,42,14.90
2009,07,01,07,43,14.90
2009,07,01,07,44,14.90
2009,07,01,07,45,14.90
2009,07,01,07,46,14.90
2009,07,01,07,47,14.90
2009,07,01,07,48,15.00
2009,07,01,07,49,15.10
2009,07,01,07,50,15.10
2009,07,01,07,51,15.10
2009,07,01,07,52,15.10
2009,07,01,07,53,15.10
2009,07,01,07,54,15.20
2009,07,01,07,55,15.20
2009,07,01,07,56,15.30
2009,07,01,07,57,15.30
2009,07,01,07,58,15.30
2009,07,01,07,59,15.30
2009,07,01,08,00,15.30
2009,07,01,08,01,15.30
2009,07,01,08,02,15.30
2009,07,01,08,03,15.30
2009,07,01,08,04,15.30
2009,07,01,08,05,15.30
2009,07,01,08,06,15.30
2009,07,01,08,07,15.30
2009,07,01,08,08,15.30
2009,07,01,08,09,15.30
2009,07,01,08,10,15.30
2009,07,01,08,11,15.30
2009,07,01,08,12,15.30
2009,07,01,08,13,15.30
2009,07,01,08,14,15.30
2009,07,01,08,15,15.30
2009,07,01,08,16,15.30
2009,07,01,08,17,15.30
2009,07,01,08,18,15.30
2009,07,01,08,19,15.30
2009,07,01,08,20,15.30
2009,07,01,08,21,15.30
2009,07,01,08,22,15.30
2009,07,01,08,23,15.40
2009,07,01,08,24,15.40
2009,07,01,08,25,15.40
2009,07,01,08,26,15.40
2009,07,01,08,27,15.30
2009,07,01,08,28,15.30
2009,07,01,08,29,15.30
2009,07,01,08,30,15.30
2009,07,01,08,31,15.30
2009,07,01,08,32,15.30
2009,07,01,08,33,15.40
2009,07,01,08,34,15.40
2009,07,01,08,35,15.50
2009,07,01,08,36,15.50
2009,07,01,08,37,15.40
2009,07,01,08,38,15.40
2009,07,01,08,39,15.40
2009,07,01,08,40,15.40
2009,07,01,08,41,15.40
2009,07,01,08,42,15.40
2009,07,01,08,43,15.50
2009,07,01,08,44,15.40
2009,07,01,08,45,15.40
2009,07,01,08,46,15.50
2009,07,01,08,47,15.50
2009,07,01,08,48,15.50
2009,07,01,08,49,15.60
2009,07,01,08,50,15.60
2009,07,01,08,51,15.70
2009,07,01,08,52,15.70
2009,07,01,08,53,15.70
2009,07,01,08,54,15.80
2009,07,01,08,55,15.80
2009,07,01,08,56,15.80
2009,07,01,08,57,15.80
2009,07,01,08,58,15.80
2009,07,01,08,59,15.80
2009,07,01,09,00,15.80
2009,07,01,09,01,15.80
2009,07,01,09,02,15.70
2009,07,01,09,03,15.70
2009,07,01,09,04,15.70
2009,07,01,09,05,15.70
2009,07,01,09,06,15.70
2009,07,01,09,07,15.70
2009,07,01,09,08,15.70
2009,07,01,09,09,15.80
2009,07,01,09,10,15.80
2009,07,01,09,11,15.70
2009,07,01,09,12,15.70
2009,07,01,09,13,15.70
2009,07,01,09,14,15.70
2009,07,01,09,15,15.70
2009,07,01,09,16,15.70
2009,07,01,09,17,15.70
2009,07,01,09,18,15.70
2009,07,01,09,19,15.70
2009,07,01,09,20,15.70
2009,07,01,09,21,15.80
2009,07,01,09,22,15.80
2009,07,01,09,23,15.80
2009,07,01,09,24,15.80
2009,07,01,09,25,15.80
2009,07,01,09,26,15.80
2009,07,01,09,27,15.80
2009,07,01,09,28,15.90
2009,07,01,09,29,15.90
2009,07,01,09,30,15.90
2009,07,01,09,31,16.00
2009,07,01,09,32,16.10
2009,07,01,09,33,16.20
2009,07,01,09,34,16.30
2009,07,01,09,35,16.40
2009,07,01,09,36,16.40
2009,07,01,09,37,16.40
2009,07,01,09,38,16.50
2009,07,01,09,39,16.60
2009,07,01,09,40,16.60
2009,07,01,09,41,16.50
2009,07,01,09,42,16.60
2009,07,01,09,43,16.60
2009,07,01,09,44,16.70
2009,07,01,09,45,16.70
2009,07,01,09,46,16.80
2009,07,01,09,47,16.90
2009,07,01,09,48,16.90
2009,07,01,09,49,16.90
2009,07,01,09,50,16.90
2009,07,01,09,51,16.80
2009,07,01,09,52,16.70
2009,07,01,09,53,16.70
2009,07,01,09,54,16.70
2009,07,01,09,55,16.70
2009,07,01,09,56,16.70
2009,07,01,09,57,16.70
2009,07,01,09,58,16.70
2009,07,01,09,59,16.70
2009,07,01,10,00,16.70
2009,07,01,10,01,16.70
2009,07,01,10,02,16.70
2009,07,01,10,03,16.70
2009,07,01,10,04,16.70
2009,07,01,10,05,16.70
2009,07,01,10,06,16.80
2009,07,01,10,07,16.80
2009,07,01,10,08,16.80
2009,07,01,10,09,16.80
2009,07,01,10,10,16.70
2009,07,01,10,11,16.70
2009,07,01,10,12,16.70
2009,07,01,10,13,16.70
2009,07,01,10,14,16.70
2009,07,01,10,15,16.70
2009,07,01,10,16,16.70
2009,07,01,10,17,16.70
2009,07,01,10,18,16.70
2009,07,01,10,19,16.70
2009,07,01,10,20,16.80
2009,07,01,10,21,16.70
2009,07,01,10,22,16.80
2009,07,01,10,23,16.80
2009,07,01,10,24,16.80
2009,07,01,10,25,16.90
2009,07,01,10,26,16.80
2009,07,01,10,27,16.80
2009,07,01,10,28,16.90
2009,07,01,10,29,16.90
2009,07,01,10,30,17.00
2009,07,01,10,31,17.00
2009,07,01,10,32,17.00
2009,07,01,10,33,16.90
2009,07,01,10,34,16.90
2009,07,01,10,35,17.00
2009,07,01,10,36,17.00
2009,07,01,10,37,17.00
2009,07,01,10,38,17.00
2009,07,01,10,39,17.10
2009,07,01,10,40,17.10
2009,07,01,10,41,17.20
2009,07,01,10,42,17.20
2009,07,01,10,43,17.30
2009,07,01,10,44,17.30
2009,07,01,10,45,17.30
2009,07,01,10,46,17.30
2009,07,01,10,47,17.30
2009,07,01,10,48,17.30
2009,07,01,10,49,17.30
2009,07,01,10,50,17.30
2009,07,01,10,51,17.30
2009,07,01,10,52,17.30
2009,07,01,10,53,17.40
2009,07,01,10,54,17.50
2009,07,01,10,55,17.50
2009,07,01,10,56,17.60
2009,07,01,10,57,17.80
2009,07,01,10,58,17.90
2009,07,01,10,59,17.90
2009,07,01,11,00,17.90
2009,07,01,11,01,17.90
2009,07,01,11,02,17.90
2009,07,01,11,03,17.90
2009,07,01,11,04,17.90
2009,07,01,11,05,17.80
2009,07,01,11,06,17.60
2009,07,01,11,07,17.50
2009,07,01,11,08,17.40
2009,07,01,11,09,17.40
2009,07,01,11,10,17.30
2009,07,01,11,11,17.30
2009,07,01,11,12,17.20
2009,07,01,11,13,17.20
2009,07,01,11,14,17.20
2009,07,01,11,15,17.20
2009,07,01,11,16,17.20
2009,07,01,11,17,17.20
2009,07,01,11,18,17.20
2009,07,01,11,19,17.20
2009,07,01,11,20,17.20
2009,07,01,11,21,17.10
2009,07,01,11,22,17.10
2009,07,01,11,23,17.10
2009,07,01,11,24,17.10
2009,07,01,11,25,17.10
2009,07,01,11,26,17.20
2009,07,01,11,27,17.30
2009,07,01,11,28,17.30
2009,07,01,11,29,17.20
2009,07,01,11,30,17.20
2009,07,01,11,31,17.30
2009,07,01,11,32,17.30
2009,07,01,11,33,17.30
2009,07,01,11,34,17.30
2009,07,01,11,35,17.30
2009,07,01,11,36,17.30
2009,07,01,11,37,17.30
2009,07,01,11,38,17.30
2009,07,01,11,39,17.30
2009,07,01,11,40,17.30
2009,07,01,11,41,17.30
2009,07,01,11,42,17.30
2009,07,01,11,43,17.30
2009,07,01,11,44,17.30
2009,07,01,11,45,17.30
2009,07,01,11,46,17.30
2009,07,01,11,47,17.30
2009,07,01,11,48,17.30
2009,07,01,11,49,17.30
2009,07,01,11,50,17.30
2009,07,01,11,51,17.30
2009,07,01,11,52,17.30
2009,07,01,11,53,17.30
2009,07,01,11,54,17.40
2009,07,01,11,55,17.40
2009,07,01,11,56,17.40
2009,07,01,11,57,17.30
2009,07,01,11,58,17.30
2009,07,01,11,59,17.20
2009,07,01,12,00,17.10
2009,07,01,12,01,17.10
2009,07,01,12,02,17.10
2009,07,01,12,03,17.00
2009,07,01,12,04,17.00
2009,07,01,12,05,17.10
2009,07,01,12,06,17.20
2009,07,01,12,07,17.30
2009,07,01,12,08,17.40
2009,07,01,12,09,17.50
2009,07,01,12,10,17.50
2009,07,01,12,11,17.50
2009,07,01,12,12,17.70
2009,07,01,12,13,17.80
2009,07,01,12,14,17.80
2009,07,01,12,15,17.90
2009,07,01,12,16,17.90
2009,07,01,12,17,17.90
2009,07,01,12,18,18.00
2009,07,01,12,19,17.90
2009,07,01,12,20,17.90
2009,07,01,12,21,17.80
2009,07,01,12,22,17.80
2009,07,01,12,23,17.80
2009,07,01,12,24,17.80
2009,07,01,12,25,17.90
2009,07,01,12,26,17.90
2009,07,01,12,27,17.90
2009,07,01,12,28,17.90
2009,07,01,12,29,17.90
2009,07,01,12,30,17.80
2009,07,01,12,31,17.80
2009,07,01,12,32,17.90
2009,07,01,12,33,17.80
2009,07,01,12,34,17.80
2009,07,01,12,35,17.70
2009,07,01,12,36,17.70
2009,07,01,12,37,17.80
2009,07,01,12,38,17.80
2009,07,01,12,39,17.80
2009,07,01,12,40,17.80
2009,07,01,12,41,17.70
2009,07,01,12,42,17.70
2009,07,01,12,43,17.70
2009,07,01,12,44,17.70
2009,07,01,12,45,17.70
2009,07,01,12,46,17.70
2009,07,01,12,47,17.70
2009,07,01,12,48,17.80
2009,07,01,12,49,17.90
2009,07,01,12,50,17.90
2009,07,01,12,51,18.10
2009,07,01,12,52,18.10
2009,07,01,12,53,18.10
2009,07,01,12,54,18.10
2009,07,01,12,55,18.10
2009,07,01,12,56,18.10
2009,07,01,12,57,18.20
2009,07,01,12,58,18.30
2009,07,01,12,59,18.40
2009,07,01,13,00,18.40
2009,07,01,13,01,18.40
2009,07,01,13,02,18.40
2009,07,01,13,03,18.30
2009,07,01,13,04,18.30
2009,07,01,13,05,18.30
2009,07,01,13,06,18.20
2009,07,01,13,07,18.20
2009,07,01,13,08,18.20
2009,07,01,13,09,18.30
2009,07,01,13,10,18.30
2009,07,01,13,11,18.30
2009,07,01,13,12,18.30
2009,07,01,13,13,18.30
2009,07,01,13,14,18.40
2009,07,01,13,15,18.40
2009,07,01,13,16,18.40
2009,07,01,13,17,18.40
2009,07,01,13,18,18.40
2009,07,01,13,19,18.40
2009,07,01,13,20,18.40
2009,07,01,13,21,18.40
2009,07,01,13,22,18.40
2009,07,01,13,23,18.40
2009,07,01,13,24,18.40
2009,07,01,13,25,18.50
2009,07,01,13,26,18.60
2009,07,01,13,27,18.70
2009,07,01,13,28,18.70
2009,07,01,13,29,18.70
2009,07,01,13,30,18.60
2009,07,01,13,31,18.60
2009,07,01,13,32,18.60
2009,07,01,13,33,18.70
2009,07,01,13,34,18.80
2009,07,01,13,35,18.80
2009,07,01,13,36,18.90
2009,07,01,13,37,18.90
2009,07,01,13,38,18.90
2009,07,01,13,39,18.90
2009,07,01,13,40,18.90
2009,07,01,13,41,18.90
2009,07,01,13,42,18.90
2009,07,01,13,43,18.90
2009,07,01,13,44,18.90
2009,07,01,13,45,18.90
2009,07,01,13,46,19.00
2009,07,01,13,47,19.10
2009,07,01,13,48,19.10
2009,07,01,13,49,19.10
2009,07,01,13,50,19.20
2009,07,01,13,51,19.30
2009,07,01,13,52,19.30
2009,07,01,13,53,19.40
2009,07,01,13,54,19.50
2009,07,01,13,55,19.50
2009,07,01,13,56,19.50
2009,07,01,13,57,19.50
2009,07,01,13,58,19.60
2009,07,01,13,59,19.70
2009,07,01,14,00,19.60
2009,07,01,14,01,19.60
2009,07,01,14,02,19.60
2009,07,01,14,03,19.60
2009,07,01,14,04,19.60
2009,07,01,14,05,19.70
2009,07,01,14,06,19.80
2009,07,01,14,07,19.80
2009,07,01,14,08,19.90
2009,07,01,14,09,19.80
2009,07,01,14,10,19.70
2009,07,01,14,11,19.70
2009,07,01,14,12,19.70
2009,07,01,14,13,19.70
2009,07,01,14,14,19.50
2009,07,01,14,15,19.40
2009,07,01,14,16,19.40
2009,07,01,14,17,19.30
2009,07,01,14,18,19.30
2009,07,01,14,19,19.30
2009,07,01,14,20,19.40
2009,07,01,14,21,19.40
2009,07,01,14,22,19.50
2009,07,01,14,23,19.50
2009,07,01,14,24,19.60
2009,07,01,14,25,19.60
2009,07,01,14,26,19.70
2009,07,01,14,27,19.70
2009,07,01,14,28,19.80
2009,07,01,14,29,19.90
2009,07,01,14,30,19.90
2009,07,01,14,31,19.90
2009,07,01,14,32,19.90
2009,07,01,14,33,19.90
2009,07,01,14,34,19.90
2009,07,01,14,35,19.90
2009,07,01,14,36,19.90
2009,07,01,14,37,19.90
2009,07,01,14,38,19.90
2009,07,01,14,39,19.90
2009,07,01,14,40,19.90
2009,07,01,14,41,19.90
2009,07,01,14,42,20.00
2009,07,01,14,43,20.10
2009,07,01,14,44,20.10
2009,07,01,14,45,20.10
2009,07,01,14,46,20.10
2009,07,01,14,47,20.00
2009,07,01,14,48,19.90
2009,07,01,14,49,19.90
2009,07,01,14,50,19.90
2009,07,01,14,51,19.90
2009,07,01,14,52,19.90
2009,07,01,14,53,19.90
2009,07,01,14,54,19.90
2009,07,01,14,55,19.90
2009,07,01,14,56,20.10
2009,07,01,14,57,20.10
2009,07,01,14,58,20.10
2009,07,01,14,59,20.20
2009,07,01,15,00,20.20
2009,07,01,15,01,20.20
2009,07,01,15,02,20.10
2009,07,01,15,03,20.00
2009,07,01,15,04,19.90
2009,07,01,15,05,20.00
2009,07,01,15,06,20.10
2009,07,01,15,07,20.10
2009,07,01,15,08,20.20
2009,07,01,15,09,20.20
2009,07,01,15,10,20.20
2009,07,01,15,11,20.10
2009,07,01,15,12,20.20
2009,07,01,15,13,20.20
2009,07,01,15,14,20.20
2009,07,01,15,15,20.20
2009,07,01,15,16,20.20
2009,07,01,15,17,20.30
2009,07,01,15,18,20.30
2009,07,01,15,19,20.30
2009,07,01,15,20,20.30
2009,07,01,15,21,20.30
2009,07,01,15,22,20.40
2009,07,01,15,23,20.50
2009,07,01,15,24,20.60
2009,07,01,15,25,20.60
2009,07,01,15,26,20.70
2009,07,01,15,27,20.70
2009,07,01,15,28,20.80
2009,07,01,15,29,20.80
2009,07,01,15,30,20.80
2009,07,01,15,31,20.70
2009,07,01,15,32,20.70
2009,07,01,15,33,20.50
2009,07,01,15,34,20.50
2009,07,01,15,35,20.40
2009,07,01,15,36,20.40
2009,07,01,15,37,20.40
2009,07,01,15,38,20.40
2009,07,01,15,39,20.30
2009,07,01,15,40,20.30
2009,07,01,15,41,20.30
2009,07,01,15,42,20.30
2009,07,01,15,43,20.40
2009,07,01,15,44,20.50
2009,07,01,15,45,20.70
2009,07,01,15,46,20.80
2009,07,01,15,47,20.90
2009,07,01,15,48,21.00
2009,07,01,15,49,21.10
2009,07,01,15,50,21.30
2009,07,01,15,51,21.30
2009,07,01,15,52,21.40
2009,07,01,15,53,21.50
2009,07,01,15,54,21.60
2009,07,01,15,55,21.60
2009,07,01,15,56,21.70
2009,07,01,15,57,21.70
2009,07,01,15,58,21.70
2009,07,01,15,59,21.70
2009,07,01,16,00,21.70
2009,07,01,16,01,21.60
2009,07,01,16,02,21.70
2009,07,01,16,03,21.80
2009,07,01,16,04,21.80
2009,07,01,16,05,21.70
2009,07,01,16,06,21.60
2009,07,01,16,07,21.60
2009,07,01,16,08,21.60
2009,07,01,16,09,21.60
2009,07,01,16,10,21.50
2009,07,01,16,11,21.40
2009,07,01,16,12,21.30
2009,07,01,16,13,21.30
2009,07,01,16,14,21.40
2009,07,01,16,15,21.40
2009,07,01,16,16,21.50
2009,07,01,16,17,21.60
2009,07,01,16,18,21.60
2009,07,01,16,19,21.90
2009,07,01,16,20,21.90
2009,07,01,16,21,21.90
2009,07,01,16,22,21.90
2009,07,01,16,23,21.80
2009,07,01,16,24,21.80
2009,07,01,16,25,21.80
2009,07,01,16,26,21.90
2009,07,01,16,27,21.90
2009,07,01,16,28,21.80
2009,07,01,16,29,21.80
2009,07,01,16,30,21.80
2009,07,01,16,31,21.80
2009,07,01,16,32,21.80
2009,07,01,16,33,21.80
2009,07,01,16,34,21.80
2009,07,01,16,35,21.70
2009,07,01,16,36,21.80
2009,07,01,16,37,21.90
2009,07,01,16,38,22.00
2009,07,01,16,39,22.00
2009,07,01,16,40,22.10
2009,07,01,16,41,22.20
2009,07,01,16,42,22.20
2009,07,01,16,43,22.20
2009,07,01,16,44,22.20
2009,07,01,16,45,22.30
2009,07,01,16,46,22.30
2009,07,01,16,47,22.40
2009,07,01,16,48,22.40
2009,07,01,16,49,22.50
2009,07,01,16,50,22.60
2009,07,01,16,51,22.80
2009,07,01,16,52,22.80
2009,07,01,16,53,22.80
2009,07,01,16,54,22.70
2009,07,01,16,55,22.60
2009,07,01,16,56,22.50
2009,07,01,16,57,22.50
2009,07,01,16,58,22.50
2009,07,01,16,59,22.50
2009,07,01,17,00,22.50
2009,07,01,17,01,22.60
2009,07,01,17,02,22.70
2009,07,01,17,03,22.80
2009,07,01,17,04,23.00
2009,07,01,17,05,23.20
2009,07,01,17,06,23.30
2009,07,01,17,07,23.50
2009,07,01,17,08,23.70
2009,07,01,17,09,23.70
2009,07,01,17,10,23.70
2009,07,01,17,11,23.70
2009,07,01,17,12,23.70
2009,07,01,17,13,23.70
2009,07,01,17,14,23.60
2009,07,01,17,15,23.60
2009,07,01,17,16,23.50
2009,07,01,17,17,23.30
2009,07,01,17,18,23.30
2009,07,01,17,19,23.30